GW2100 Weather Reports


time (UTC)temp
C
wind
direction
speed
KPH
gust
KPH
rain 1hr
cm
rain 24hr
cm
rain mn
cm
humidity
%
barometer
mb
20260504151003 10 330 30.6 48.3 0.00 0.00 0.00 48 1010.2
20260504150503 10 349 27.4 45.1 0.00 0.00 0.00 48 1010.5
20260504141004 10 352 29.0 49.9 0.00 0.00 0.00 54 1010.0
20260504140503 10 349 22.5 35.4 0.00 0.00 0.00 54 1010.1
20260504130503 9 332 14.5 29.0 0.00 0.00 0.00 54 1009.9
20260504110503 12 357 32.2 46.7 0.00 0.00 0.00 43 1006.5
20260504100502 12 279 11.3 19.3 0.00 0.00 0.00 41 1005.5
20260504082004 13 281 12.9 27.4 0.00 0.00 0.00 44 1005.3
20260504081503 13 282 12.9 22.5 0.00 0.00 0.00 44 1005.4
20260504081004 13 275 11.3 22.5 0.00 0.00 0.00 45 1005.4
20260504080503 13 266 11.3 22.5 0.00 0.00 0.00 45 1005.4
20260504050503 13 284 11.3 19.3 0.00 0.00 0.00 48 1007.0
20260504050004 13 267 9.7 19.3 0.00 0.00 0.00 49 1007.0
20260504045503 13 271 9.7 19.3 0.00 0.00 0.00 48 1007.0
20260504045003 13 273 11.3 19.3 0.00 0.00 0.00 49 1007.0
20260504044503 13 275 11.3 19.3 0.00 0.00 0.00 49 1006.8
20260504044003 13 262 9.7 19.3 0.00 0.00 0.00 49 1006.8
20260504043504 13 260 11.3 20.9 0.00 0.00 0.00 50 1006.8
20260504043003 13 261 11.3 22.5 0.00 0.00 0.00 50 1006.8
20260504042503 13 256 11.3 22.5 0.00 0.00 0.00 51 1006.8
20260504042003 13 253 11.3 22.5 0.00 0.00 0.00 52 1006.8
20260504041503 13 249 9.7 22.5 0.00 0.00 0.00 53 1006.7
20260504041003 13 257 9.7 19.3 0.00 0.00 0.00 55 1006.8
20260504040503 13 267 8.0 16.1 0.00 0.00 0.00 57 1006.9
20260504040004 13 265 8.0 12.9 0.00 0.00 0.00 57 1007.0
20260504035503 13 265 6.4 12.9 0.00 0.00 0.00 57 1007.0
20260504035003 14 261 8.0 14.5 0.00 0.00 0.00 57 1007.1
20260504034503 14 253 4.8 14.5 0.00 0.00 0.00 56 1007.1
20260504034003 14 236 8.0 14.5 0.00 0.00 0.00 56 1007.1
20260504033503 14 254 8.0 14.5 0.00 0.00 0.00 57 1007.1
20260504033003 14 252 4.8 11.3 0.00 0.00 0.00 58 1007.2
20260504032503 14 252 4.8 11.3 0.00 0.00 0.00 58 1007.2
20260504032003 14 248 4.8 11.3 0.00 0.00 0.00 57 1007.2
20260504031503 14 233 6.4 11.3 0.00 0.00 0.00 57 1007.1
20260504031003 14 220 6.4 12.9 0.00 0.00 0.00 58 1007.1
20260504030503 13 268 3.2 12.9 0.00 0.00 0.00 59 1007.2
20260504030003 13 216 3.2 12.9 0.00 0.00 0.00 62 1007.1
20260504025503 13 147 3.2 4.8 0.00 0.00 0.00 62 1007.1
20260504025005 13 114 4.8 4.8 0.00 0.00 0.00 61 1007.1
20260504024503 13 85 3.2 4.8 0.00 0.00 0.00 61 1007.1
20260504024003 13 90 3.2 9.7 0.00 0.00 0.00 61 1007.2
20260504023503 13 109 4.8 9.7 0.00 0.00 0.00 61 1007.2
20260504023003 13 147 4.8 9.7 0.00 0.00 0.00 61 1007.1
20260504022503 13 163 3.2 9.7 0.00 0.00 0.00 61 1007.1
20260504022003 13 164 8.0 9.7 0.00 0.00 0.00 60 1007.1
20260504021503 13 163 6.4 11.3 0.00 0.00 0.00 59 1007.2
20260504021003 13 156 6.4 11.3 0.00 0.00 0.00 59 1007.3
20260504020503 13 150 8.0 11.3 0.00 0.00 0.00 59 1007.4
20260504020004 14 144 9.7 11.3 0.00 0.00 0.00 58 1007.4
20260504015503 14 160 6.4 12.9 0.00 0.00 0.00 57 1007.4
20260504015004 15 167 8.0 16.1 0.00 0.00 0.00 56 1007.5
20260504014504 15 173 8.0 22.5 0.00 0.00 0.00 55 1007.5
20260504014003 15 179 12.9 22.5 0.00 0.00 0.00 55 1007.5
20260504013503 15 183 14.5 22.5 0.00 0.00 0.00 53 1007.6
20260504013003 15 185 14.5 22.5 0.00 0.00 0.00 53 1007.6
20260504012503 15 184 14.5 25.7 0.00 0.00 0.00 52 1007.7
20260504012003 15 181 14.5 29.0 0.00 0.00 0.00 51 1007.8
20260504011504 15 187 20.9 29.0 0.00 0.00 0.00 51 1007.9
20260504011003 16 182 17.7 29.0 0.00 0.00 0.00 50 1007.9
20260504010503 16 183 14.5 29.0 0.00 0.00 0.00 51 1008.1
20260504010003 16 180 14.5 22.5 0.00 0.00 0.00 50 1008.2
20260504005503 16 179 12.9 22.5 0.00 0.00 0.00 49 1008.3
20260504005003 16 176 14.5 22.5 0.00 0.00 0.00 48 1008.4
20260504004503 16 173 14.5 22.5 0.00 0.00 0.00 47 1008.5
20260504004003 16 169 14.5 25.7 0.00 0.00 0.00 47 1008.6
20260504003503 16 173 12.9 25.7 0.00 0.00 0.00 46 1008.6
20260504003003 16 178 16.1 25.7 0.00 0.00 0.00 45 1008.6
20260504002503 17 185 17.7 27.4 0.00 0.00 0.00 44 1008.8
20260504002002 17 183 17.7 27.4 0.00 0.00 0.00 45 1008.8
20260504001503 17 183 17.7 27.4 0.00 0.00 0.00 44 1008.9
20260504001002 17 190 19.3 27.4 0.00 0.00 0.00 41 1008.9
20260504000503 17 192 17.7 24.1 0.00 0.00 0.00 39 1009.0
20260504000002 18 191 14.5 22.5 0.00 0.00 0.00 38 1009.1
20260503235503 18 181 9.7 20.9 0.00 0.00 0.00 40 1009.2
20260503235003 18 196 11.3 20.9 0.00 0.00 0.00 40 1009.3
20260503234503 18 193 12.9 19.3 0.00 0.00 0.00 40 1009.4
20260503234003 17 212 9.7 19.3 0.00 0.00 0.00 40 1009.4
20260503233502 17 214 9.7 22.5 0.00 0.00 0.00 40 1009.4
20260503233002 17 213 9.7 25.7 0.00 0.00 0.00 40 1009.6
20260503232502 18 203 16.1 25.7 0.00 0.00 0.00 39 1009.6
20260503232003 17 217 9.7 24.1 0.00 0.00 0.00 42 1009.6
20260503231503 17 211 14.5 24.1 0.00 0.00 0.00 43 1009.7
20260503231003 17 215 12.9 22.5 0.00 0.00 0.00 46 1009.7
20260503230504 17 204 12.9 22.5 0.00 0.00 0.00 50 1009.8
20260503230004 17 198 12.9 20.9 0.00 0.00 0.00 52 1009.9
20260503225504 16 248 4.8 11.3 0.00 0.00 0.00 53 1009.9
20260503225004 16 177 1.6 11.3 0.00 0.00 0.00 53 1010.2
20260503224503 16 255 1.6 14.5 0.00 0.00 0.00 52 1010.6
20260503224004 16 232 6.4 16.1 0.00 0.00 0.00 52 1010.8
20260503223504 16 217 6.4 16.1 0.00 0.00 0.00 53 1010.9
20260503223004 16 208 9.7 16.1 0.00 0.00 0.00 53 1011.0
20260503222504 16 238 4.8 11.3 0.00 0.00 0.00 53 1011.0
20260503222004 16 230 4.8 12.9 0.00 0.00 0.00 53 1011.2
20260503221504 16 248 6.4 12.9 0.00 0.00 0.00 56 1011.3
20260503221004 16 250 4.8 11.3 0.00 0.00 0.00 59 1011.3
20260503220504 16 227 4.8 9.7 0.00 0.00 0.00 62 1011.4
20260503220004 15 270 4.8 9.7 0.00 0.00 0.00 62 1011.5
20260503215504 14 288 3.2 8.0 0.00 0.00 0.00 64 1011.5
20260503215003 14 328 4.8 9.7 0.00 0.00 0.00 69 1011.6
20260503214504 13 328 6.4 12.9 0.00 0.00 0.00 70 1011.6
20260503214004 13 336 8.0 14.5 0.00 0.00 0.00 71 1011.8
20260503213504 13 339 9.7 22.5 0.00 0.00 0.00 71 1012.0
20260503213003 13 349 11.3 24.1 0.00 0.00 0.00 69 1012.0
20260503212503 14 9 16.1 24.1 0.00 0.00 0.00 64 1012.0
20260503212003 14 335 6.4 9.7 0.00 0.00 0.00 63 1012.1
20260503211504 15 321 4.8 16.1 0.00 0.00 0.00 56 1012.2
20260503211004 15 281 6.4 16.1 0.00 0.00 0.00 59 1012.3
20260503210504 15 313 8.0 12.9 0.00 0.00 0.00 56 1012.3
20260503210004 16 301 9.7 11.3 0.00 0.00 0.00 49 1012.6
20260503205504 16 296 8.0 11.3 0.00 0.00 0.00 47 1012.5
20260503205004 16 310 1.6 8.0 0.00 0.00 0.00 46 1012.3
20260503204503 16 167 1.6 12.9 0.00 0.00 0.00 45 1012.1
20260503204004 16 206 6.4 12.9 0.00 0.00 0.00 45 1012.0
20260503203503 16 183 6.4 12.9 0.00 0.00 0.00 45 1011.8
20260503203003 17 133 4.8 12.9 0.00 0.00 0.00 45 1011.9
20260503202503 17 105 8.0 12.9 0.00 0.00 0.00 45 1011.9
20260503202003 16 121 6.4 9.7 0.00 0.00 0.00 47 1011.9
20260503201504 16 121 4.8 8.0 0.00 0.00 0.00 47 1012.1
20260503201004 16 68 3.2 11.3 0.00 0.00 0.00 50 1012.2
20260503200504 16 10 4.8 16.1 0.00 0.00 0.00 50 1012.4
20260503200004 16 20 9.7 16.1 0.00 0.00 0.00 50 1012.6
20260503195504 16 19 12.9 16.1 0.00 0.00 0.00 48 1012.7
20260503195004 16 2 8.0 14.5 0.00 0.00 0.00 48 1012.8
20260503194504 16 356 6.4 16.1 0.00 0.00 0.00 47 1012.8
20260503194003 17 7 11.3 16.1 0.00 0.00 0.00 44 1012.9
20260503193504 17 37 8.0 11.3 0.00 0.00 0.00 40 1012.8
20260503193004 17 9 6.4 11.3 0.00 0.00 0.00 38 1012.8
20260503192504 17 26 6.4 14.5 0.00 0.00 0.00 39 1012.8
20260503192003 17 37 9.7 14.5 0.00 0.00 0.00 36 1012.8
20260503191504 18 53 4.8 12.9 0.00 0.00 0.00 36 1012.9
20260503191003 17 173 3.2 11.3 0.00 0.00 0.00 36 1012.9
20260503190504 18 174 4.8 11.3 0.00 0.00 0.00 35 1012.9
20260503190003 18 118 4.8 22.5 0.00 0.00 0.00 35 1013.0
20260503185503 19 2 8.0 22.5 0.00 0.00 0.00 34 1013.1
20260503185003 19 13 14.5 22.5 0.00 0.00 0.00 34 1013.1
20260503184503 19 339 12.9 20.9 0.00 0.00 0.00 36 1013.2
20260503184003 18 326 11.3 22.5 0.00 0.00 0.00 38 1013.2
20260503183503 18 330 12.9 22.5 0.00 0.00 0.00 42 1013.3
20260503183003 17 10 11.3 22.5 0.00 0.00 0.00 38 1013.5
20260503182504 17 354 8.0 19.3 0.00 0.00 0.00 36 1013.5
20260503182004 17 39 8.0 27.4 0.00 0.00 0.00 35 1013.6
20260503181505 18 22 16.1 27.4 0.00 0.00 0.00 35 1013.6
20260503181003 18 334 17.7 27.4 0.00 0.00 0.00 33 1013.5
20260503180503 18 36 3.2 24.1 0.00 0.00 0.00 34 1013.7
20260503180004 19 29 12.9 25.7 0.00 0.00 0.00 33 1013.7
20260503175503 19 25 14.5 25.7 0.00 0.00 0.00 33 1013.7
20260503175004 19 22 9.7 25.7 0.00 0.00 0.00 33 1013.8
20260503174503 18 37 8.0 19.3 0.00 0.00 0.00 34 1014.0
20260503174003 18 18 12.9 22.5 0.00 0.00 0.00 35 1014.0
20260503173503 18 11 9.7 24.1 0.00 0.00 0.00 35 1014.1
20260503173003 17 7 16.1 24.1 0.00 0.00 0.00 36 1014.2
20260503172504 18 20 14.5 24.1 0.00 0.00 0.00 35 1014.3
20260503172003 18 11 17.7 24.1 0.00 0.00 0.00 35 1014.4
20260503171503 17 40 6.4 20.9 0.00 0.00 0.00 35 1014.5
20260503171003 17 353 8.0 24.1 0.00 0.00 0.00 37 1014.4
20260503170503 17 3 11.3 24.1 0.00 0.00 0.00 36 1014.5